Regional Weather Roundup
Issued by NWS

Home | Current Version | Previous Version | Text Only | Print | Product List | Glossary On
Versions: 1 2 3 4 5 6 7 8 9 10 11 12 13 14 15 16 17 18 19 20 21 22 23 24 25 26 27 28 29 30 31 32 33 34 35 36 37 38 39 40 41 42 43 44 45 46 47 48 49 50
000
ASUS43 KLSX 231310
RWRMO

WEATHER SUMMARY FOR MISSOURI
NATIONAL WEATHER SERVICE SPRINGFIELD MO
700 AM CST THU FEB 23 2017

NOTE: "FAIR" INDICATES FEW OR NO CLOUDS BELOW 12,000 FEET WITH NO
       SIGNIFICANT WEATHER AND/OR OBSTRUCTIONS TO VISIBILITY.
       CURRENT SKY AND/OR WEATHER CONDITIONS ARE NOT AVAILABLE FOR
       CHILLICOTHE AND FARMINGTON.

MOZ001>031-035>038-043-044-053-054-231400-
...NORTHERN AND WESTERN MISSOURI...

CITY           SKY/WX    TMP DP  RH WIND       PRES   REMARKS
KANSAS CTY INT CLOUDY    49  40  71 E13       29.69F
KANSAS C DTWN  CLOUDY    52  40  63 NE10      29.69F
LEE`S SUMMIT   CLOUDY    50  42  74 NE14      29.68F
ST JOSEPH      CLOUDY    47  42  83 NE10      29.73F
CHILLICOTHE      N/A     46  40  79 NE10      29.74F
KIRKSVILLE     MOCLDY    41  38  89 NE15      29.76R

$$
MOZ066>068-077>081-088>096-101>105-231400-
...SOUTHWEST MISSOURI...

CITY           SKY/WX    TMP DP  RH WIND       PRES   REMARKS
SPRINGFIELD    FOG       53  53 100 SE14      29.68R VSB 1/2
JOPLIN         PTCLDY    55  53  93 SE9       29.62F
BRANSON        CLOUDY    50  50 100 SE8       29.70F VSB 1/4

$$
MOZ032>034-039>042-045>050-055>058-069>072-231400-
...CENTRAL MISSOURI...

CITY           SKY/WX    TMP DP  RH WIND       PRES   REMARKS
COLUMBIA       CLOUDY    51  50  96 NE8       29.69S
JEFFERSON CITY FOG       45  45 100 CALM      29.70S VSB 1/4
ROLLA          FOG       52  52 100 SE5       29.69F VSB<1/4
SEDALIA        CLOUDY    52  50  93 NE9       29.72R
WHITEMAN AFB   CLOUDY    51  47  86 NE10      29.68R
WARRENSBURG    CLOUDY    50  41  71 NE7       29.69F
OSAGE BEACH    FOG       54  54 100 SE3       29.71R VSB 1/4

$$
MOZ051-052-059>065-231400-
...EAST CENTRAL MISSOURI...

CITY           SKY/WX    TMP DP  RH WIND       PRES   REMARKS
ST LOUIS INTL  CLOUDY    50  47  89 E5        29.72S
SPIRIT OF STL  FOG       43  43 100 CALM      29.70F VSB 1/4
ST CHARLES     FOG       45  45 100 E3        29.70F VSB<1/4

$$
MOZ072>076-082>087-097>100-106>115-231400-
...SOUTH CENTRAL AND SOUTHEAST MISSOURI...

CITY           SKY/WX    TMP DP  RH WIND       PRES   REMARKS
CAPE GIRARDEAU FOG       54  53  97 S6        29.77R VSB 1/4
FARMINGTON     CLOUDY    54  52  94 S8        29.74R FOG
POPLAR BLUFF   FOG       52  52 100 CALM      29.76S VSB<1/4
WEST PLAINS    FOG       53  52  96 S7        29.75S VSB 1/4

$$




USA.gov is the U.S. government's official web portal to all federal, state and local government web resources and services.